Погода в Давыдове

Россия / Орловская область     52°44′19″N   37°33′47″E
темп.,
°C
ветер,
м/с
пор.,
м/с
влажн.,
%
обл.,
%
осадки,
мм/ч
давл.,
гПа
погр.,
м
7 мая, пт
пт700:00+8ююз0190100 2.3 1011147
03:00+7юз2492100 2.6 1011139
06:00+7зсз3692100 0.2 1012235
09:00+10зсз456217 0.2 1014717
12:00+13з44435 0.0 10151686
15:00+14юз34385 0.0 10152092
18:00+13ююз3452100 0.0 1014334
21:00+10юв496539 0.0 1014159
8 мая, сб
сб800:00+9ююв61461100 0.0 1013348
03:00+9ююв71763100 0.0 1011534
06:00+8ююв91889100 2.9 1009892
09:00+9ююв91890100 5.4 1007803
12:00+10ю91694100 2.7 1006978
15:00+11ююз61196100 4.9 1006839
18:00+11юз5987100 0.4 1007797
21:00+7зюз61289100 0.6 1009804
9 мая, вс
вс900:00+6зсз61090100 0.1 1011729
03:00+5зсз61078100 0.0 1015869
06:00+4сз61090100 0.0 1016498
09:00+6сз797014 0.0 1018903
12:00+10ссз7855100 0.1 10191878
15:00+10ссз795592 0.1 10211714
18:00+9с79634 0.1 10231481
21:00+5с36750 0.1 1025112
10 мая, пн
пн1000:00+4ссз47770 0.0 1027113
03:00+3с49794 0.0 1028152
06:00+4с397916 0.0 1030205
09:00+10ссв595915 0.0 10301010
12:00+13св794746 0.0 10291331
15:00+14св79478 0.0 10291506
18:00+13св69605 0.0 10291179
21:00+9всв36710 0.0 103195
11 мая, вт
вт1100:00+7св412780 0.0 1030231
03:00+6св412780 0.0 1029241
06:00+7св614760 0.0 1030370
09:00+12всв812591 0.0 1029624
12:00+16всв79574 0.0 1028883
15:00+17всв79599 0.0 10271058
18:00+16всв597061 0.0 1026535
21:00+12св513835 0.0 1026301